This demonstration page uses our WeatherBlox Daily Observations layout. Learn more.

Left ArrowRight Arrow

41.55636, -103.73856

Hourly Observations for August 8, 2021

Temp ( °F °C ) Dew Point ( °F °C ) Humidity (%) Winds ( mph kmh ) Pressure ( in mb ) Visibility ( mi km ) Precip ( " mm )
12:58 am 00:58 Clear 56 13.6 47 8.4 71 71 SW 9 15 29.86 1011 10 16 0.00 0.00
1:58 am 01:58 Clear 61 16.3 45 7.2 55 55 SW 7 11 29.85 1011 10 16 0.00 0.00
2:58 am 02:58 Clear 62 16.6 44 6.9 53 53 SW 9 15 29.84 1011 10 16 0.00 0.00
3:58 am 03:58 Clear 63 17.2 44 6.5 50 50 SW 7 11 29.83 1010 10 16 0.00 0.00
4:58 am 04:58 Clear 60 15.7 42 5.6 51 51 SW 10 17 29.83 1010 9 14 0.00 0.00
5:58 am 05:58 Sunny 60 15.5 41 5.2 51 51 SSW 10 17 29.84 1011 7 11 0.00 0.00
6:58 am 06:58 Hazy 58 14.6 43 6.1 57 57 WSW 6 9 29.85 1011 6 10 0.00 0.00
7:58 am 07:58 Hazy 65 18.2 43 6.2 46 46 WSW 6 9 29.84 1011 6 10 0.00 0.00
8:58 am 08:58 Sunny 76 24.4 38 3.1 25 25 W 9 15 29.83 1010 8 13 0.00 0.00
9:58 am 09:58 Sunny 79 26 39 4 24 24 WNW 10 17 29.82 1010 9 14 0.00 0.00
10:58 am 10:58 Sunny 82 27.6 39 4 22 22 NW 8 13 29.81 1010 10 16 0.00 0.00
11:58 am 11:58 Sunny 87 30.5 38 3.4 18 18 WNW 9 15 29.80 1009 10 16 0.00 0.00
12:58 pm 12:58 Sunny 89 31.8 39 3.8 17 17 NNW 7 11 29.78 1008 10 16 0.00 0.00
1:58 pm 13:58 Sunny 91 32.9 33 0.8 13 13 NW 8 13 29.75 1008 10 16 0.00 0.00
2:58 pm 14:58 Sunny 93 34 34 1 12 12 NW 10 17 29.74 1007 10 16 0.00 0.00
3:58 pm 15:58 Sunny 94 34.2 35 1.7 13 13 NNW 13 20 29.73 1007 10 16 0.00 0.00
4:58 pm 16:58 Sunny 93 33.8 33 0.3 12 12 NNW 12 19 29.72 1007 10 16 0.00 0.00
5:58 pm 17:58 Sunny 93 33.7 33 0.3 12 12 Calm 29.73 1007 10 16 0.00 0.00
6:58 pm 18:58 Sunny 87 30.4 43 6.3 22 22 E 7 11 29.75 1008 10 16 0.00 0.00
7:58 pm 19:58 Sunny 80 26.6 43 6.3 27 27 ESE 13 20 29.75 1007 10 16 0.00 0.00
8:58 pm 20:58 Clear 78 25.7 40 4.4 25 25 SSE 15 24 29.74 1007 10 16 0.00 0.00
9:58 pm 21:58 Clear 74 23.4 41 4.9 30 30 SSW 10 17 29.75 1008 10 16 0.00 0.00
10:58 pm 22:58 Clear 71 21.8 41 4.8 33 33 SSW 12 19 29.74 1007 10 16 0.00 0.00
11:58 pm 23:58 Clear 74 23.6 38 3.4 27 27 SSW 12 19 29.72 1006 10 16 0.00 0.00

Powered by AerisWeather